Effective Sunday, March 17, 2024, the National Weather Service National Data Buoy Center will discontinue its Dial-A-Buoy Interactive Voice Response system. For more information, see Service Change Notice 24-06 (PDF).

Station IOSN3 - Isle of Shoals, NH Image indicating link to RSS feed of recent meteorological observations for station IOSN3


Conditions at IOSN3 as of
(3:00 pm EST)
2000 GMT on 02/27/2024:
     

Click on the graph icon in the table below to see a time series plot of the last five days of that observation.

5-day plot - Wind Direction Wind Direction (WDIR):ESE ( 120 deg true )
5-day plot - Wind Speed Wind Speed (WSPD): 13 kts
5-day plot - Wind Gust Wind Gust (GST): 14 kts
5-day plot - Atmospheric Pressure Atmospheric Pressure (PRES):30.01 in
5-day plot - Pressure Tendency Pressure Tendency (PTDY):-0.06 in ( Falling )
5-day plot - Air Temperature Air Temperature (ATMP): 37.8 °F
5-day plot - Dew Point Dew Point (DEWP): 37.8 °F
5-day plot - Wind Chill Wind Chill (CHILL): 28.9 °F
5-day plot - Wind Speed at 10 Meters Wind Speed at 10 meters (WSPD10M): 12 kts
5-day plot - Wind Speed at 20 Meters Wind Speed at 20 meters (WSPD20M): 14 kts
5-day plot -  Wind Speed, Wind Gust and Atmospheric Pressure Combined plot of Wind Speed, Gust, and Air Pressure
Continuous Winds
TIME
(EST)
5-day plot - Wind Direction WDIR 5-day plot - Wind Speed WSPD
3:00 pmESE ( 120 deg ) 13 kts
2:50 pmESE ( 121 deg ) 12 kts
2:40 pmESE ( 112 deg ) 7 kts
2:30 pmESE ( 116 deg ) 8 kts
2:20 pmESE ( 109 deg ) 7 kts
2:10 pmESE ( 114 deg ) 7 kts
 
Peak gust during the measurement hour
TIME
(EST)
5-day plot - Gust Direction GDR 5-day plot - Gust Speed GST
2:52 pmESE ( 120 deg ) 15 kts
Previous observations
TIME
(EST)
5-day plot - Wind Direction
WDIR
 
5-day plot - Wind Speed
WSPD
kts
5-day plot - Wind Gust
GST
kts
5-day plot - Wave Height
WVHT
ft
5-day plot - Dominant Wave Period
DPD
sec
5-day plot - Average Wave Period
APD
sec
5-day plot - Mean Wave Direction
MWD
 
5-day plot - Atmospheric Pressure
PRES
in
5-day plot - Pressure Tendency
PTDY
in
5-day plot - Air Temperature
ATMP
°F
5-day plot - Water Temperature
WTMP
°F
5-day plot - Dew Point
DEWP
°F
5-day plot - Salinity
SAL
psu
5-day plot - Visibility
VIS
nmi
5-day plot - Tide (above MLLW)
TIDE
ft
2024-02-27 02:00 pmESE 8 8----30.03-0.07 37.0- 37.0---
2024-02-27 01:00 pm SE 10 11----30.04-0.07 36.1- 36.1---
2024-02-27 12:00 pm SE 11 12----30.07-0.04 35.1- 35.1---
2024-02-27 11:00 amSSE 7 9----30.10+0.00 35.4- 35.4---
2024-02-27 10:00 amSSE 7 8----30.12+0.03 35.1- 35.1---
2024-02-27 09:00 amSSE 6 7----30.11+0.02 36.9- 36.9---
2024-02-27 08:00 amSSE 9 10----30.11+0.02 36.0- 34.9---
2024-02-27 07:00 am SE 7 7----30.09+0.03 38.5- 36.3---
2024-02-27 06:00 am SE 5 5----30.09+0.03 38.5- 36.3---
2024-02-27 05:00 amSSE 7 8----30.09+0.01 38.8- 36.5---
2024-02-27 04:00 amESE 12 13----30.06+0.00 39.7- 36.7---
2024-02-27 03:00 am E 17 18----30.06+0.00 41.0- 32.9---
2024-02-27 02:00 am E 14 15----30.08+0.00 41.5- 30.0---
2024-02-27 01:00 am E 14 15----30.07+0.02 41.5- 29.3---
2024-02-27 12:00 amENE 16 17----30.06+0.04 41.7- 30.7---
2024-02-26 11:00 pm E 12 13----30.07+0.09 41.2- 30.4---
2024-02-26 10:00 pm NE 16 18----30.05+0.09 42.1- 28.9---
2024-02-26 09:00 pm N 14 17----30.02+0.10 47.7- 26.6---
2024-02-26 08:00 pm SW 13 13----29.98+0.09 49.6- 27.3---
2024-02-26 07:00 pm SW 12 12----29.95+0.07 50.9- 22.6---
2024-02-26 06:00 pmWSW 13 15----29.92+0.05 52.3- 21.7---
2024-02-26 05:00 pm W 14 16----29.89+0.01 50.4- 24.4---
2024-02-26 04:00 pm SW 15 16----29.88-0.02 48.4- 26.8---
2024-02-26 03:00 pmSSW 15 15----29.88-0.05 45.9- 27.7---